TimeCST,TemperatureF,Dew PointF,Humidity,Sea Level PressureIn,VisibilityMPH,Wind Direction,Wind SpeedMPH,Gust SpeedMPH,PrecipitationIn,Events,Conditions,WindDirDegrees,DateUTC
12:54 AM,28.0,26.1,92,30.13,10.0,SSW,5.8,-,N/A,,Overcast,200,2013-01-05 06:54:00
1:54 AM,28.0,25.0,88,30.12,10.0,SSW,8.1,-,N/A,,Overcast,210,2013-01-05 07:54:00
2:54 AM,27.0,23.0,85,30.11,10.0,South,10.4,-,N/A,,Overcast,180,2013-01-05 08:54:00
3:54 AM,25.0,21.0,85,30.12,10.0,SSW,8.1,-,N/A,,Mostly Cloudy,200,2013-01-05 09:54:00
4:54 AM,24.1,21.0,88,30.12,10.0,SW,9.2,-,N/A,,Overcast,220,2013-01-05 10:54:00
5:54 AM,19.9,18.0,92,30.12,10.0,SSW,6.9,-,N/A,,Partly Cloudy,200,2013-01-05 11:54:00
6:54 AM,14.0,12.0,92,30.14,6.0,WSW,5.8,-,N/A,,Clear,240,2013-01-05 12:54:00
7:04 AM,14.0,12.2,93,30.05,7.0,West,8.1,-,N/A,,Scattered Clouds,270,2013-01-05 13:04:00
7:54 AM,9.0,7.0,92,30.17,10.0,West,9.2,-,N/A,,Clear,260,2013-01-05 13:54:00
8:54 AM,10.0,6.1,84,30.19,10.0,NW,8.1,-,N/A,,Clear,310,2013-01-05 14:54:00
9:54 AM,19.0,10.9,71,30.19,10.0,NW,15.0,-,N/A,,Clear,320,2013-01-05 15:54:00
10:54 AM,25.0,16.0,69,30.21,10.0,NW,11.5,-,N/A,,Clear,310,2013-01-05 16:54:00
11:54 AM,30.0,19.0,64,30.19,10.0,NNW,17.3,-,N/A,,Clear,330,2013-01-05 17:54:00
12:54 PM,32.0,21.0,64,30.19,10.0,North,25.3,-,N/A,,Clear,350,2013-01-05 18:54:00
1:54 PM,35.1,25.0,67,30.19,10.0,North,19.6,-,N/A,,Clear,350,2013-01-05 19:54:00
2:54 PM,36.0,26.1,67,30.23,10.0,NNW,16.1,-,N/A,,Clear,340,2013-01-05 20:54:00
3:54 PM,35.1,26.1,70,30.27,10.0,North,11.5,-,N/A,,Clear,350,2013-01-05 21:54:00
4:54 PM,35.1,26.1,70,30.29,10.0,NW,6.9,-,N/A,,Clear,320,2013-01-05 22:54:00
5:54 PM,30.9,23.0,72,30.32,10.0,WNW,10.4,-,N/A,,Clear,300,2013-01-05 23:54:00
6:54 PM,27.0,21.0,78,30.37,10.0,WNW,11.5,-,N/A,,Clear,300,2013-01-06 00:54:00
7:54 PM,26.1,19.9,78,30.40,10.0,NW,11.5,-,N/A,,Clear,320,2013-01-06 01:54:00
8:54 PM,28.9,21.0,72,30.40,10.0,NW,11.5,-,N/A,,Clear,310,2013-01-06 02:54:00
9:54 PM,21.9,17.1,82,30.41,10.0,WNW,8.1,-,N/A,,Clear,300,2013-01-06 03:54:00
10:54 PM,19.0,14.0,81,30.41,10.0,WNW,10.4,-,N/A,,Clear,300,2013-01-06 04:54:00
11:54 PM,19.9,15.1,81,30.41,10.0,NW,11.5,-,N/A,,Clear,310,2013-01-06 05:54:00